Volver al catálogo

HAWK-10C

ActivoCienciaSSO
NORAD 60575·PAYLOAD·🇺🇸 United States

Lanzado Aug 16, 2024 desde Vandenberg Space Force Base

Loading…

Próximos Pases (próximas 24 horas)

TLE

ActualizadoSource: Space-Track

Época: Sep 14, 2026, 11:49 UTC

1 60575U 24149DM  26257.49271953  .00001633  00000-0  14791-3 0  9993
2 60575  97.6664 330.3604 0004911 110.6623 249.5126 14.96729555113340

Sigue HAWK-10C en tiempo real con AllMySat

Download on the App Store